User: anonymous   Login
Location: Caltech
(34.1382°N, 118.1253°W)
Time: 20:28:00
(UTC-08:00)
Language:

COSMOS 2428 - Orbit

View from above orbital plane
View from above orbital plane
View from above satellite
View from above satellite

Ground track
Ground track

The orbit data is extracted from the following two-line orbital elements,

1 31792U 07029A   17055.86808444 -.00000077  00000-0 -15505-4 0  9996
2 31792  70.9134 287.9440 0005148  95.8898 264.2810 14.12255322498211
Epoch (UTC): 24 February 2017 20:50:02
Eccentricity: 0.0005148
inclination: 70.9134°
perigee height: 848 km
apogee height: 855 km
right ascension of ascending node: 287.9440°
argument of perigee: 95.8898°
revolutions per day: 14.12255322
mean anomaly at epoch: 264.2810°
orbit number at epoch: 49821

The dashed part of the orbit path shows where the satellite is in the earth's shadow,  

DLR